OXP 1

Satellite information

Favourite Embed

Satellite Type and Status

PAYLOADIN ORBIT

Key statistics

Satellite OXP 1 at a glance.

Uptime

11836

Days in orbit

Revolutions

≈ 14.5

Per day

Orbit

LEO

Low Earth Orbit

Inclination

25.0

Latest

Satellite identification and parameters

Extended collection of information and parameters for OXP 1.

Object identification

Identified? True

Debris? False

Object name: OXP 1

International designator: 1993-009A

Object number (NORAD): 22489

Object ID (CCSDS): 22489

Country: UNITED STATES OF AMERICA (US)

Current information (Y/N): Y

RCS size: LARGE

Orbital parameters

Period: 99.532 minutes

Inclination: 24.9626 deg

SMA: 7114.341 km

Apoapsis: 764.693 km

Periapsis: 707.718 km

RAAN: 178.4313 deg

Eccentricy: 0.0040042

Argument of periapsis: 97.6417 deg

Mean anomaly: 262.8641 deg

Mean motion: 14.46774317 rev/day

Mean motion (dot): 0.00000418 rev/day2

B* drag term: 0.000062336 1/REarth

Two-line elements (TLE)

Creation date: July 5, 2025, 5:45 p.m.

Reference frame: TEME

Reference center: EARTH

Epoch: July 5, 2025, 8:58 a.m. UTC

TLE line 0: 0 OXP 1

TLE line 1: 1 22489U 93009A 25186.37367316 .00000418 00000-0 62336-4 0 9991

TLE line 2: 2 22489 24.9626 178.4313 0040042 97.6417 262.8641 14.46774317710907

Live tracking on map

Real-time ground track for satellite OXP 1.

In-orbit conjunctions

A list of the most updated potential collisions computed for object OXP 1.

Target Orbit TCA Probability of collision Miss distance Type
CZ-6A DEB LEO 2024-12-05 20:24:48 0.0003338709 920.0 (m) DEBRIS
SL-8 DEB LEO 2024-09-21 12:09:01 0.0001886464 699.0 (m) DEBRIS
FENGYUN 1C DEB SSO 2024-08-27 10:59:30 0.0001107636 18.0 (m) DEBRIS

Associated space launch

OXP 1 was lifted into orbit during the mission ‘Pegasus | Satélite de Coleta de Dados-1 (SCD-1)’, on board a Pegasus space rocket.

The launch took place on Feb. 9, 1993, 2:30 p.m. from Cape Canaveral.

For more information about the launch, click the button.

Launch to space Pegasus | Satélite de Coleta de Dados-1 (SCD-1)
Pegasus | Satélite de Coleta de Dados-1 (SCD-1)

Agency: N/A

Status: Launch Successful

Launch date: Feb. 9, 1993, 2:30 p.m. UTC

Rocket: Pegasus

Launch pad: Cape Canaveral

Location: Air launch to orbit

...

Latest news about this satellite

There are no fresh news available about this satellite. Check back as we update our databases every day.


Newsletter sign-up

Weekly statistics, charts and insights to help you stay on top of the space industry.